User: anonymous   Login
Location: Marsån
(66.4167°N, 22.2833°E)
Time: 19:42:03
(UTC+00:00)
Language:

Cosmos 1515 Rocket - Orbit

View from above orbital plane
View from above orbital plane
View from above satellite
View from above satellite

Ground track
Ground track

The orbit data is extracted from the following two-line orbital elements,

1 14552U 83122B   24141.30860016  .00001376  00000-0  15951-3 0  9990
2 14552  82.5253 227.9534 0018420  96.5127 263.8186 14.84635021184181
Epoch (UTC): 20 May 2024 07:24:23
Eccentricity: 0.0018420
inclination: 82.5253°
perigee height: 602 km
apogee height: 627 km
right ascension of ascending node: 227.9534°
argument of perigee: 96.5127°
revolutions per day: 14.84635021
mean anomaly at epoch: 263.8186°
orbit number at epoch: 18418

The dashed part of the orbit path shows where the satellite is in the earth's shadow,  

DLR